FW6259 Weather Reports


time (UTC)temp
F
wind
direction
speed
knots
gust
knots
rain 1hr
in
rain 24hr
in
rain mn
in
humidity
%
barometer
mb
20260504044553 35 96 0.0 2.6 0.07 0.28 0.28 95 1023.0
20260504043109 35 88 0.0 2.6 0.06 0.26 0.26 95 1023.3
20260504041501 36 61 0.0 4.3 0.06 0.24 0.24 94 1023.2
20260504040057 36 39 0.9 3.5 0.05 0.22 0.22 94 1023.2
20260504034554 36 47 0.9 4.3 0.06 0.21 0.21 94 1023.3
20260504033046 36 69 0.9 3.5 0.07 0.20 0.20 94 1023.3
20260504031600 37 79 0.9 2.6 0.06 0.18 0.18 94 1023.4
20260504030109 37 60 0.9 4.3 0.06 0.17 0.17 93 1023.5
20260504024548 37 89 0.0 2.6 0.05 0.15 0.15 93 1023.4
20260504023059 37 90 0.0 4.3 0.04 0.13 0.13 92 1023.5
20260504021557 38 97 0.9 5.2 0.04 0.12 0.12 91 1023.6
20260504020043 38 55 0.9 4.3 0.03 0.11 0.11 91 1023.5
20260504014502 38 77 1.7 4.3 0.03 0.10 0.10 89 1023.5
20260504013055 38 49 0.9 5.2 0.03 0.09 0.09 89 1023.7
20260504011546 39 60 0.9 3.5 0.02 0.08 0.08 89 1023.8
20260504010200 39 39 0.0 2.6 0.03 0.08 0.08 89 1023.9
20260504004556 39 66 0.9 3.5 0.03 0.07 0.07 88 1023.9
20260504003046 39 68 0.0 4.3 0.02 0.06 0.06 87 1024.0
20260504001514 40 55 0.0 2.6 0.03 0.06 0.06 86 1024.1
20260504000003 40 68 0.0 1.7 0.02 0.05 0.05 86 1024.2
20260503234601 40 147 0.9 3.5 0.01 0.04 0.04 82 1024.3
20260503233053 40 23 0.0 2.6 0.02 0.04 0.04 83 1024.3
20260503231505 40 30 0.0 3.5 0.02 0.03 0.03 82 1024.6
20260503230114 40 142 0.0 1.7 0.02 0.03 0.03 83 1024.7
20260503224553 40 342 0.9 2.6 0.03 0.03 0.03 84 1024.6
20260503223100 40 23 0.0 1.7 0.02 0.02 0.02 81 1024.6
20260503221502 40 292 0.0 1.7 0.01 0.01 0.01 82 1024.7
20260503220052 41 188 0.9 1.7 0.01 0.01 0.01 80 1024.7
20260503214507 41 123 0.0 3.5 0.00 0.00 0.00 76 1024.8
20260503213056 41 253 0.9 3.5 0.00 0.00 0.00 73 1024.8
20260503211551 41 160 1.7 2.6 0.00 0.00 0.00 72 1024.8
20260503210047 43 188 2.6 4.3 0.00 0.00 0.00 66 1024.6
20260503204600 43 206 0.9 5.2 0.00 0.00 0.00 64 1024.7
20260503203050 43 105 2.6 5.2 0.00 0.00 0.00 62 1024.5
20260503201553 43 130 0.0 3.5 0.00 0.00 0.00 62 1024.5
20260503200044 43 140 0.9 4.3 0.00 0.00 0.00 62 1024.5
20260503194619 44 348 1.7 4.3 0.00 0.00 0.00 60 1024.4
20260503193051 44 117 1.7 4.3 0.00 0.00 0.00 59 1024.2
20260503191551 44 49 1.7 4.3 0.00 0.00 0.00 58 1024.2
20260503184556 44 162 1.7 5.2 0.00 0.00 0.00 59 1024.2
20260503183050 43 63 3.5 8.7 0.00 0.00 0.00 60 1024.1
20260503181607 43 68 3.5 7.0 0.00 0.00 0.00 59 1024.2
20260503180053 43 58 2.6 5.2 0.00 0.00 0.00 60 1024.0
20260503174504 43 21 1.7 6.1 0.00 0.00 0.00 62 1023.9
20260503173054 42 70 1.7 7.0 0.00 0.00 0.00 65 1024.0
20260503171551 41 117 0.9 3.5 0.00 0.00 0.00 65 1024.1
20260503170113 41 105 0.9 3.5 0.00 0.00 0.00 66 1024.0
20260503130147 39 249 2.6 6.1 0.00 0.00 0.00 65 1023.9
20260503081504 40 162 0.9 9.6 0.00 0.01 0.00 61 1023.2
20260503071603 41 181 5.2 17.4 0.00 0.01 0.01 59 1022.7
20260503054541 41 191 4.3 10.4 0.00 0.01 0.01 60 1022.1
20260503053058 42 163 7.8 13.9 0.00 0.01 0.01 59 1022.0
20260503051651 42 240 4.3 13.0 0.00 0.01 0.01 58 1021.9
20260503050147 43 210 7.0 13.9 0.00 0.01 0.01 56 1021.8